FW5830 Weather Reports


time (UTC)temp
C
wind
direction
speed
KPH
gust
KPH
rain 1hr
cm
rain 24hr
cm
rain mn
cm
humidity
%
barometer
mb
20260504081547 11 96 1.6 6.4 0.00 0.00 0.00 31 1011.1
20260504044553 15 62 3.2 6.4 0.00 0.00 0.00 26 1012.0
20260504043052 15 53 3.2 8.0 0.00 0.00 0.00 27 1012.0
20260504041546 15 49 4.8 9.7 0.00 0.00 0.00 26 1012.2
20260504034558 15 93 1.6 4.8 0.00 0.00 0.00 27 1012.4
20260504033124 16 0 0.0 3.2 0.00 0.00 0.00 26 1012.6
20260504031549 16 0 1.6 4.8 0.00 0.00 0.00 26 1012.5
20260504030050 16 0 0.0 4.8 0.00 0.00 0.00 26 1012.4
20260504024547 16 326 1.6 8.0 0.00 0.00 0.00 27 1012.4
20260504023100 16 312 3.2 3.2 0.00 0.00 0.00 27 1012.2
20260504021551 16 311 1.6 3.2 0.00 0.00 0.00 27 1012.3
20260504020057 16 252 1.6 1.6 0.00 0.00 0.00 27 1012.2
20260504014550 16 251 0.0 1.6 0.00 0.00 0.00 27 1012.2
20260504013047 16 0 0.0 3.2 0.00 0.00 0.00 26 1012.2
20260504011548 17 226 1.6 4.8 0.00 0.00 0.00 25 1012.1
20260504010054 17 231 0.0 4.8 0.00 0.00 0.00 25 1012.2
20260504004612 17 211 6.4 14.5 0.00 0.00 0.00 25 1012.1
20260504003048 17 191 3.2 8.0 0.00 0.00 0.00 24 1012.2
20260504001551 17 219 3.2 8.0 0.00 0.00 0.00 24 1012.3
20260504000049 17 101 14.5 30.6 0.00 0.00 0.00 23 1012.4
20260503234549 17 122 14.5 22.5 0.00 0.00 0.00 24 1012.4
20260503233050 18 143 14.5 38.6 0.00 0.00 0.00 23 1012.0
20260503231545 18 115 9.7 22.5 0.00 0.00 0.00 20 1011.8
20260503230057 19 127 14.5 24.1 0.00 0.00 0.00 19 1011.8
20260503224548 19 113 12.9 19.3 0.00 0.00 0.00 19 1011.8
20260503223057 19 123 4.8 29.0 0.00 0.00 0.00 18 1012.1
20260503221554 20 128 6.4 25.7 0.00 0.00 0.00 18 1012.2
20260503220049 19 91 12.9 27.4 0.00 0.00 0.00 19 1012.2
20260503214548 20 135 12.9 29.0 0.00 0.00 0.00 17 1012.4
20260503213103 20 181 8.0 19.3 0.00 0.00 0.00 16 1012.5
20260503211551 20 108 4.8 14.5 0.00 0.00 0.00 15 1012.8
20260503210059 20 113 3.2 12.9 0.00 0.00 0.00 14 1013.0
20260503204554 21 228 3.2 11.3 0.00 0.00 0.00 14 1013.1
20260503203056 21 198 3.2 11.3 0.00 0.00 0.00 14 1013.3
20260503201547 20 202 4.8 9.7 0.00 0.00 0.00 14 1013.6
20260503200051 21 296 3.2 8.0 0.00 0.00 0.00 14 1013.8
20260503194551 21 325 3.2 8.0 0.00 0.00 0.00 15 1013.9
20260503193054 21 201 1.6 4.8 0.00 0.00 0.00 14 1014.1
20260503191601 21 175 1.6 4.8 0.00 0.00 0.00 14 1014.2
20260503190052 20 313 1.6 6.4 0.00 0.00 0.00 16 1014.5
20260503184557 20 322 3.2 6.4 0.00 0.00 0.00 17 1014.8
20260503183110 20 318 0.0 8.0 0.00 0.00 0.00 17 1015.0
20260503181555 21 299 1.6 8.0 0.00 0.00 0.00 17 1015.3
20260503180050 21 316 3.2 6.4 0.00 0.00 0.00 18 1015.5
20260503174551 20 249 3.2 8.0 0.00 0.00 0.00 21 1015.9
20260503173113 18 326 1.6 4.8 0.00 0.00 0.00 17 1016.3
20260503171552 18 0 3.2 6.4 0.00 0.00 0.00 18 1016.6